Location: Ozark
(37.5425°N, 88.7628°W)
Time: 12:16:23
(UTC+00:00)

Nadezhda 3 Rocket - Pass Details

Date: 26 January 2020
Orbit: 958 x 999 km, 82.9° (Epoch: 19 February)

Event Time Altitude Azimuth Distance (km) Brightness Sun altitude
Rises 12:08:03 0° 189° (S) 3,621 7.1 -11.2°
Reaches altitude 10° 12:10:32 10° 190° (S) 2,680 6.4 -10.7°
Maximum altitude 12:16:39 78° 277° (W) 983 3.9 -9.6°
Drops below altitude 10° 12:22:52 10° 4° (N) 2,711 6.2 -8.4°
Sets 12:25:24 0° 6° (N) 3,667 6.9 -7.9°
